Location: Unspecified
(41.5000°N, 0.0000°E)
Time: 17:05:49
(UTC+00:00)

deb Explorer IX - Pass Details

Date: 23 June 2019
Orbit: 539 x 1112 km, 38.8° (Epoch: 17 July)

Event Time Altitude Azimuth Distance (km) Brightness Sun altitude
Rises 16:29:28 0° 273° (W) 3,915 ? 32.3°
Reaches altitude 10° 16:32:15 10° 271° (W) 2,972 ? 31.8°
Maximum altitude 16:39:34 66° 191° (SSW) 1,186 ? 30.4°
Drops below altitude 10° 16:46:30 10° 111° (ESE) 2,825 ? 29.1°
Sets 16:49:05 0° 109° (ESE) 3,711 ? 28.6°
